Location: Villingen
(48.0639°N, 8.4609°E)
Time: 20:47:41
(UTC+02:00)

ISS - Visible Passes

Search period start: 25 July 2017 00:00
Search period end: 04 August 2017 00:00
Orbit: 400 x 408 km, 51.6° (Epoch: 25 July)

Date Brightness Start Highest point End Pass type
(mag) Time Alt. Az. Time Alt. Az. Time Alt. Az.
25 Jul -3.1 00:07:12 10° W 00:10:24 53° NNW 00:13:36 10° ENE visible
25 Jul -2.7 01:44:04 10° WNW 01:47:13 44° N 01:50:22 10° E visible
25 Jul -4.0 03:20:35 10° WNW 03:23:50 73° SSW 03:27:05 10° ESE visible
25 Jul -2.1 04:58:02 10° WSW 04:59:51 14° SW 05:01:39 10° S visible
25 Jul -3.6 23:14:46 10° WSW 23:18:01 71° NNW 23:21:16 10° ENE visible
26 Jul -2.6 00:51:38 10° WNW 00:54:46 42° N 00:56:43 19° ENE visible
26 Jul -1.7 02:28:14 10° WNW 02:29:16 19° WNW 02:29:16 19° WNW visible
26 Jul -3.9 22:22:24 10° WSW 22:25:39 80° SSE 22:28:55 10° ENE visible
26 Jul -2.6 23:59:10 10° W 00:02:18 43° N 00:05:19 11° ENE visible
27 Jul -2.3 01:35:53 10° WNW 01:37:54 33° NW 01:37:54 33° NW visible
27 Jul -2.9 23:06:40 10° W 23:09:51 50° NNW 23:13:03 10° ENE visible
28 Jul -2.9 00:43:30 10° WNW 00:46:41 46° N 00:46:54 45° NNE visible
28 Jul -3.4 22:14:11 10° W 22:17:25 63° NNW 22:20:40 10° ENE visible
28 Jul -2.6 23:51:04 10° WNW 23:54:12 42° N 23:56:01 21° ENE visible
29 Jul -1.5 01:27:38 10° WNW 01:28:38 18° WNW 01:28:38 18° WNW visible
29 Jul -2.6 22:58:34 10° WNW 23:01:42 42° N 23:04:50 10° ENE visible
30 Jul -2.9 00:35:15 10° WNW 00:37:49 47° NW 00:37:49 47° NW visible
30 Jul -2.8 22:06:02 10° W 22:09:12 47° N 22:12:23 10° ENE visible
30 Jul -3.0 23:42:50 10° WNW 23:46:01 49° N 23:47:01 34° ENE visible
31 Jul -1.0 01:19:21 10° WNW 01:19:38 12° WNW 01:19:38 12° WNW visible
31 Jul -2.7 22:50:22 10° WNW 22:53:31 43° N 22:56:14 13° ENE visible
01 Aug -2.4 00:26:54 10° WNW 00:28:51 33° WNW 00:28:51 33° WNW visible
01 Aug -2.6 21:57:50 10° WNW 22:00:59 42° N 22:04:06 10° ENE visible
01 Aug -3.7 23:34:29 10° WNW 23:37:44 69° NNE 23:38:06 61° ENE visible
02 Aug -3.2 22:42:02 10° WNW 22:45:14 52° NNE 22:47:21 19° E visible
03 Aug -1.8 00:18:34 10° WNW 00:19:58 22° W 00:19:58 22° W visible
03 Aug -2.8 21:49:33 10° WNW 21:52:42 44° N 21:55:51 10° E visible
03 Aug -3.9 23:26:04 10° WNW 23:29:15 71° SW 23:29:15 71° SW visible
